Date,TemperatureHighF,TemperatureAvgF,TemperatureLowF,DewpointHighF,DewpointAvgF,DewpointLowF,HumidityHigh,HumidityAvg,HumidityLow,PressureMaxIn,PressureMinIn,WindSpeedMaxMPH,WindSpeedAvgMPH,GustSpeedMaxMPH,PrecipitationSumIn
2013-1-1,30,23,19,26,17,13,83,77,72,30.09,30.00,2,0,0,0.00
2013-1-2,28,18,10,17,12,8,94,80,58,30.21,30.06,4,1,0,0.00
2013-1-3,32,20,5,24,15,2,92,80,53,30.19,30.08,8,2,0,0.00
2013-1-4,32,29,27,24,20,18,82,70,58,30.18,30.10,13,3,0,0.01
2013-1-5,37,37,37,25,25,24,60,60,59,30.18,30.16,2,0,0,0.01
2013-1-6,36,34,32,31,28,26,88,80,73,30.15,29.98,7,3,0,0.25
2013-1-8,46,33,23,28,25,20,94,74,42,30.29,30.23,4,1,0,0.34
2013-1-9,46,39,28,36,31,26,95,74,60,30.46,30.14,12,3,0,0.04
2013-1-10,45,34,25,32,28,24,98,80,56,30.58,30.20,4,1,0,0.00
2013-1-11,55,46,39,51,42,28,98,85,60,30.18,29.81,7,2,0,0.70
2013-1-12,61,51,43,55,49,42,98,92,73,30.01,29.85,4,2,0,0.00
2013-1-13,63,52,36,58,48,34,97,88,76,30.01,29.71,13,3,0,0.73
2013-1-14,36,31,28,34,25,20,94,79,65,30.43,30.02,9,3,0,0.00
2013-1-15,34,30,28,25,23,21,79,75,63,30.40,30.10,5,1,0,0.00
2013-1-16,36,32,28,26,24,21,87,74,64,30.09,29.86,8,2,0,0.00
2013-1-17,37,33,27,29,25,18,81,74,58,30.25,29.99,11,3,0,0.00
2013-1-18,36,28,19,21,17,10,85,63,49,30.47,30.08,9,3,0,0.00
2013-1-19,52,42,34,30,25,21,61,52,43,30.08,29.70,9,4,0,0.00
2013-1-20,46,29,19,34,17,11,80,61,53,30.15,29.66,23,6,0,0.00
2013-1-21,25,19,10,15,10,2,81,67,51,30.13,29.92,12,4,0,0.00
2013-1-22,14,9,5,5,2,-2,86,72,53,30.26,30.07,9,4,0,0.00
2013-1-23,21,13,3,11,5,-3,89,73,56,30.26,30.05,7,2,0,0.98
2013-1-24,28,16,5,14,7,-60,92,72,41,30.54,30.05,9,2,0,0.00
2013-1-25,27,20,14,18,14,7,89,78,63,30.38,30.01,2,0,0,0.00
2013-1-26,30,24,19,22,19,17,93,82,63,30.30,30.04,6,1,0,0.00
2013-1-27,39,32,28,24,20,17,81,62,42,30.47,30.23,5,2,0,0.00
2013-1-28,46,40,30,46,39,24,99,95,77,30.23,29.91,6,3,0,1.73
2013-1-29,61,50,37,55,49,37,99,94,78,30.03,29.69,5,2,0,1.06
2013-1-30,61,54,36,55,49,32,96,83,71,29.54,29.15,13,5,0,0.66
2013-1-31,34,26,19,31,19,8,89,73,61,29.85,29.28,17,6,0,1.57
2013-2-1,21,17,14,13,10,7,85,73,64,30.28,29.84,14,4,0,0.63
2013-2-2,28,20,14,22,15,7,91,80,71,30.26,29.94,5,1,0,0.00
2013-2-3,32,21,14,20,15,12,95,79,56,29.99,29.84,11,2,0,0.00
2013-2-4,34,24,18,23,18,13,90,79,59,30.02,29.85,5,1,0,0.50
2013-2-5,36,28,21,25,21,19,95,77,56,29.92,29.83,5,1,0,0.01
2013-2-6,41,28,18,26,17,11,94,67,33,30.31,29.92,5,1,0,0.17
2013-2-7,46,33,18,29,23,14,85,68,47,30.28,29.83,6,2,0,0.02
2013-2-8,39,32,27,36,28,22,95,86,76,30.24,29.70,12,5,0,0.26
2013-2-9,36,27,18,23,20,16,95,77,52,30.41,30.24,8,2,0,0.04
2013-2-10,52,35,19,28,22,18,95,62,32,30.30,29.80,6,3,0,0.00
2013-2-11,52,40,34,43,32,25,92,73,58,29.90,29.65,17,6,0,0.00
2013-2-12,37,32,23,27,25,22,96,76,63,30.07,29.90,11,3,0,2.78
2013-2-13,36,29,23,27,24,20,96,81,60,29.91,29.73,5,1,0,1.11
2013-2-14,41,31,23,34,28,22,97,88,73,29.86,29.76,6,2,0,0.00
2013-2-15,36,34,32,27,26,24,75,73,71,30.05,30.00,5,3,0,0.00
2013-2-16,30,23,18,23,19,15,93,84,65,30.03,29.94,4,1,0,0.00
2013-2-17,32,20,9,17,12,6,90,74,44,30.23,29.96,12,2,0,2.22
2013-2-18,45,27,5,32,17,2,90,68,41,30.23,29.71,7,3,0,0.11
2013-2-19,46,32,19,39,26,11,93,81,57,29.95,29.56,15,6,0,0.21
2013-2-20,25,21,18,18,14,11,88,73,59,30.20,29.95,11,5,0,0.00
2013-2-21,28,22,16,19,15,12,90,77,56,30.35,30.19,6,2,0,0.00
2013-2-22,37,30,19,34,26,14,88,83,73,30.27,29.90,8,2,0,0.06
2013-2-23,34,33,32,29,28,26,82,81,80,29.93,29.92,3,3,0,0.00
2013-2-24,32,30,28,24,22,20,76,73,70,30.05,29.88,7,4,0,0.00
2013-2-25,43,32,19,30,24,18,96,73,50,30.21,30.04,7,1,0,0.00
2013-2-26,37,34,27,36,30,22,94,85,64,30.07,29.47,8,3,0,0.82
2013-2-27,43,37,32,39,35,31,98,92,77,29.62,29.47,6,2,0,0.46
2013-2-28,36,33,32,33,30,28,95,89,85,29.87,29.56,9,3,0,1.02
2013-3-1,32,29,27,29,25,22,90,85,78,30.01,29.87,9,4,0,0.00
2013-3-2,34,28,25,25,24,20,91,83,66,30.00,29.95,7,3,0,0.00
2013-3-3,30,27,23,24,20,17,91,76,66,30.00,29.96,8,4,0,0.87
2013-3-4,36,26,10,24,19,8,95,75,55,30.12,30.05,6,1,0,0.19
2013-3-5,43,30,18,31,21,15,94,72,40,30.09,29.66,8,2,0,0.71
2013-3-6,45,36,28,33,29,25,96,74,58,30.17,29.66,8,2,0,0.00
2013-3-7,37,33,30,32,30,27,96,89,74,30.35,30.16,5,2,0,0.00
2013-3-8,37,29,19,30,25,17,96,87,69,30.46,30.35,6,1,0,0.02
2013-3-9,55,37,21,34,28,20,97,74,42,30.42,30.09,5,1,0,0.00
2013-3-10,70,56,45,40,35,30,63,47,30,30.08,29.86,7,3,0,0.00
2013-3-11,57,49,41,48,44,35,95,83,50,29.85,29.55,8,3,0,1.42
2013-3-12,41,36,32,35,29,26,90,77,70,29.97,29.74,10,3,0,0.01
2013-3-13,32,31,28,28,24,18,90,75,58,30.15,29.88,13,4,0,0.15
2013-3-14,36,29,23,24,21,17,85,72,52,30.22,30.09,10,3,0,0.73
2013-3-15,45,36,28,35,29,22,92,77,67,30.09,29.83,10,2,0,0.04
2013-3-16,37,32,30,35,30,26,97,91,84,30.00,29.66,5,2,0,0.29
2013-3-17,32,30,27,27,25,21,89,83,77,30.20,30.00,5,2,0,0.40
2013-3-18,45,35,27,44,32,20,98,88,75,30.15,29.56,11,3,0,0.35
2013-3-19,41,32,28,39,25,20,92,73,62,29.94,29.67,13,5,0,0.00
2013-3-20,32,29,21,24,20,13,87,70,55,29.95,29.87,13,4,0,0.00
2013-3-21,30,25,18,26,19,12,91,78,65,29.90,29.85,10,4,0,0.10
2013-3-22,37,30,27,25,23,20,88,76,57,30.00,29.89,8,3,0,0.02
2013-3-23,43,30,19,32,24,18,95,79,59,30.05,29.98,7,1,0,0.16
2013-3-24,37,31,23,26,23,20,93,75,56,30.01,29.49,7,2,0,0.00
2013-3-25,43,34,30,34,31,25,96,88,70,29.80,29.41,4,1,0,0.42
2013-3-26,41,35,30,32,31,29,98,87,68,30.06,29.80,9,2,0,0.12
2013-3-27,45,37,32,32,29,26,95,75,51,30.16,30.07,11,4,0,0.02
2013-3-28,45,39,34,33,30,27,78,70,60,30.25,30.16,4,1,0,0.00
2013-3-29,50,40,32,32,28,20,85,62,39,30.27,30.21,10,2,0,0.00
2013-3-30,59,50,36,31,28,25,76,44,29,30.23,29.97,5,2,0,0.00
2013-3-31,54,46,37,44,35,26,80,67,46,29.97,29.67,6,2,0,0.02
2013-4-1,46,37,32,39,23,12,89,59,35,30.06,29.66,13,5,0,0.00
2013-4-2,39,30,23,23,18,14,81,62,37,30.18,30.06,10,3,0,0.00
2013-4-3,37,33,21,20,16,14,76,52,41,30.43,30.29,7,3,0,0.00
2013-4-4,59,37,19,21,17,12,85,50,18,30.38,29.95,4,1,0,0.00
2013-4-5,46,38,28,33,24,16,75,58,45,30.21,29.92,9,2,0,0.00
2013-4-6,57,41,23,23,19,14,88,47,21,30.26,29.90,5,2,0,0.91
2013-4-7,73,57,41,46,35,16,77,45,23,30.03,29.76,14,4,0,0.00
2013-4-8,73,54,34,55,44,32,93,70,46,30.04,29.81,8,2,0,0.01
2013-4-9,81,64,45,59,50,40,89,62,45,30.11,29.85,6,2,0,0.00
2013-4-10,73,53,43,63,48,41,98,85,66,29.96,29.80,8,2,0,1.59
2013-4-11,54,47,41,49,45,41,99,93,76,29.91,29.58,6,2,0,0.44
2013-4-12,50,43,39,50,39,33,99,87,70,29.84,29.44,11,2,0,0.43
2013-4-13,43,39,34,38,33,28,88,77,70,30.02,29.83,9,3,0,0.01
2013-4-14,59,47,30,42,36,28,93,67,47,30.10,29.99,5,2,0,0.00
2013-4-15,72,61,45,54,48,38,78,63,49,30.04,29.92,8,3,0,0.00
2013-4-16,70,57,50,59,51,47,97,80,69,30.18,29.94,6,2,0,0.73
2013-4-17,63,50,46,48,46,46,99,90,55,30.29,30.20,6,2,0,0.00
2013-4-18,86,73,59,65,59,54,88,62,38,29.91,29.66,11,4,0,0.00
2013-4-19,70,52,39,60,44,30,91,73,55,29.83,29.37,12,4,0,0.38
2013-4-20,45,37,30,33,28,24,89,68,50,30.41,29.84,11,4,0,0.78
2013-4-21,50,37,27,34,28,24,95,71,44,30.61,30.41,6,2,0,2.28
2013-4-22,68,50,32,41,34,26,85,58,33,30.47,30.21,7,1,0,0.00
2013-4-23,73,59,43,51,39,29,78,49,33,30.22,29.88,5,3,0,0.01
2013-4-24,59,46,34,54,43,32,97,90,67,30.15,29.73,7,3,0,0.98
2013-4-25,54,41,30,43,35,30,99,80,49,30.35,30.16,11,2,0,0.08
2013-4-26,63,45,30,40,32,27,99,66,28,30.48,30.35,5,1,0,0.00
2013-4-27,73,53,36,43,36,32,90,59,25,30.39,30.12,5,1,0,0.00
2013-4-28,57,52,45,55,47,39,92,84,69,30.11,29.87,4,2,0,0.29
2013-4-29,70,61,52,59,54,49,99,80,61,29.99,29.88,7,2,0,0.87
2013-4-30,79,63,48,61,54,48,99,75,45,30.12,29.99,5,1,0,0.13
2013-5-1,82,67,54,61,54,49,86,64,38,30.26,30.11,5,2,0,0.77
2013-5-2,81,66,54,56,46,40,80,49,29,30.31,30.16,7,2,0,1.54
2013-5-3,79,66,54,49,43,37,67,44,24,30.20,30.08,7,2,0,0.77
2013-5-4,73,63,52,47,41,36,68,47,28,30.16,30.05,7,3,0,0.00
2013-5-5,75,63,52,45,39,30,72,46,19,30.10,29.98,7,2,0,0.77
2013-5-6,77,63,50,56,45,31,80,54,37,30.05,29.95,7,2,0,0.77
2013-5-7,77,65,54,59,54,50,87,70,50,30.03,29.95,5,2,0,0.00
2013-5-8,73,63,52,59,54,50,98,75,53,29.99,29.93,5,1,0,0.78
2013-5-9,79,66,54,58,51,42,99,66,29,29.99,29.92,6,1,0,0.02
2013-5-10,75,64,52,65,58,48,99,83,64,29.95,29.75,5,2,0,1.36
2013-5-11,57,49,45,51,46,41,99,90,72,29.89,29.79,14,2,0,0.08
2013-5-12,50,43,36,40,33,29,96,69,45,30.08,29.89,13,4,0,0.00
2013-5-13,52,42,32,33,29,23,92,63,35,30.18,30.06,8,2,0,0.00
2013-5-14,70,52,32,49,38,28,87,61,40,30.15,29.79,6,2,0,0.01
2013-5-15,86,68,54,64,53,41,84,61,32,29.83,29.69,15,3,0,0.00
2013-5-16,82,66,50,54,49,42,98,60,25,29.97,29.76,6,1,0,0.00
2013-5-17,77,63,48,57,46,-31,86,59,36,30.13,29.97,9,2,0,0.00
2013-5-18,82,68,52,62,52,40,78,58,36,30.14,30.01,6,1,0,0.00
2013-5-19,86,71,59,69,62,53,97,74,54,30.06,29.92,4,1,0,0.01
2013-5-20,86,74,61,74,67,60,99,81,58,29.99,29.86,7,2,0,0.00
2013-5-21,88,76,68,73,67,62,97,75,47,29.90,29.78,8,2,0,0.00
2013-5-22,86,75,64,68,64,59,97,71,51,29.83,29.70,7,2,0,0.24
2013-5-23,77,59,43,64,56,42,99,89,64,30.05,29.74,5,2,0,0.49
2013-5-24,46,43,34,42,37,32,97,80,64,30.33,30.05,10,3,0,0.06
2013-5-25,61,47,30,43,36,29,99,71,43,30.37,30.27,6,1,0,0.56
2013-5-26,68,50,32,44,36,30,99,66,34,30.33,30.24,6,1,0,0.00
2013-5-27,61,51,36,52,45,35,97,80,48,30.28,30.04,6,1,0,0.32
2013-5-28,84,67,52,72,61,51,99,83,56,30.04,29.89,5,2,0,0.40
2013-5-29,88,76,64,70,65,60,97,69,50,30.05,29.93,8,2,0,0.00
2013-5-30,90,76,63,73,65,59,96,71,44,30.15,30.04,5,1,0,0.00
2013-5-31,88,73,63,73,66,61,99,82,54,30.07,29.94,10,1,0,2.03
2013-6-1,84,72,63,73,68,62,99,86,68,29.96,29.75,8,2,0,0.27
2013-6-2,77,69,61,65,62,55,99,80,60,29.93,29.75,11,2,0,0.42
2013-6-3,64,57,45,55,47,40,95,70,43,30.10,29.93,6,2,0,0.00
2013-6-4,70,56,41,52,45,40,99,70,41,30.18,30.09,5,1,0,0.00
2013-6-5,77,61,45,59,50,42,97,69,37,30.17,29.94,4,1,0,0.00
2013-6-6,63,57,54,60,55,19,99,91,75,29.94,29.82,4,1,0,1.43
2013-6-7,64,57,54,58,55,52,99,93,77,29.90,29.84,3,1,0,0.02
2013-6-8,72,61,54,60,55,50,99,82,62,30.11,29.89,3,1,0,1.76
2013-6-9,81,68,52,65,59,51,98,77,55,30.15,29.97,6,1,0,0.24
2013-6-10,73,68,63,71,66,61,99,93,84,29.96,29.75,3,0,0,1.96
2013-6-11,81,69,63,68,64,62,99,86,65,29.90,29.77,7,2,0,0.78
2013-6-12,73,66,63,70,65,62,99,94,79,29.92,29.69,3,0,0,0.00
2013-6-13,73,65,61,66,61,56,99,86,62,29.87,29.50,8,3,0,0.60
2013-6-14,72,61,52,62,56,49,99,83,59,30.09,29.87,6,1,0,0.00
2013-6-15,82,64,46,63,55,46,99,77,40,30.13,29.97,4,1,0,0.00
2013-6-16,81,71,63,68,65,58,99,82,60,29.98,29.84,6,2,0,0.57
2013-6-17,86,71,61,71,64,60,99,80,54,29.96,29.88,7,1,0,0.00
2013-6-18,75,67,59,65,59,52,95,77,61,30.03,29.87,8,2,0,0.00
2013-6-19,77,58,46,57,49,45,99,77,44,30.18,30.03,3,1,0,0.00
2013-6-20,86,65,46,61,53,46,99,69,41,30.24,30.17,7,1,0,0.00
2013-6-21,88,69,54,68,59,-45,97,72,45,30.26,30.14,3,0,0,0.00
2013-6-22,90,77,61,76,68,59,96,75,56,30.17,30.03,5,1,0,0.00
2013-6-23,91,79,64,74,69,64,98,74,48,30.13,30.03,5,1,0,0.00
2013-6-24,91,78,64,72,68,61,95,73,49,30.13,29.98,9,1,0,0.00
2013-6-25,90,76,64,76,69,2,99,81,5,30.02,29.85,6,2,0,3.54
2013-6-26,84,74,64,73,69,64,99,86,64,29.93,29.79,5,1,0,0.30
2013-6-27,81,72,66,72,69,66,99,89,64,29.80,29.64,3,0,0,1.53
2013-6-28,81,69,61,71,64,58,99,85,60,29.65,29.50,6,1,0,0.06
2013-6-29,77,68,61,69,64,59,99,88,69,29.70,29.53,3,1,0,0.22
2013-6-30,75,68,61,68,64,60,99,87,74,29.90,29.70,4,1,0,0.01
2013-7-1,75,67,63,69,65,61,99,92,78,29.99,29.87,3,1,0,0.62
2013-7-2,82,70,61,71,66,60,99,88,64,30.07,29.95,3,1,0,0.19
2013-7-3,86,73,63,76,68,62,99,87,62,30.14,30.05,3,0,0,0.00
2013-7-4,81,74,68,73,70,66,99,87,70,30.18,30.12,4,1,0,0.08
2013-7-5,81,73,68,74,69,67,99,90,73,30.15,30.09,5,1,0,0.41
2013-7-6,88,74,64,75,70,64,99,88,66,30.17,30.01,5,1,0,0.02
2013-7-7,81,74,68,72,68,66,98,83,62,30.10,30.00,5,1,0,0.09
2013-7-8,86,72,63,76,68,62,99,89,65,30.11,30.04,6,1,0,0.81
2013-7-9,90,75,68,78,72,68,99,90,66,30.06,29.93,8,1,0,0.91
2013-7-10,90,74,68,80,71,66,99,94,72,29.96,29.79,5,1,0,0.96
2013-7-11,77,69,59,68,62,57,99,80,57,30.04,29.92,6,1,0,0.00
2013-7-12,81,67,55,69,62,55,99,84,57,30.12,30.04,7,1,0,0.17
2013-7-13,88,73,59,72,65,58,99,80,54,30.23,30.11,6,1,0,0.00
2013-7-14,91,78,64,76,71,64,99,81,55,30.27,30.21,4,1,0,0.00
2013-7-15,93,79,70,78,73,70,99,83,55,30.34,30.26,3,0,0,0.17
2013-7-16,91,80,70,80,74,70,99,84,63,30.34,30.26,4,1,0,0.17
2013-7-17,93,81,72,78,73,71,99,79,54,30.31,30.17,5,1,0,0.00
2013-7-18,91,82,72,79,74,71,99,80,57,30.19,30.02,8,1,0,0.01
2013-7-19,93,82,73,79,74,71,99,80,59,30.03,29.82,7,2,0,0.00
2013-7-20,81,73,68,75,70,67,99,91,75,29.92,29.79,4,1,0,0.76
2013-7-21,84,73,64,73,68,62,99,85,61,29.99,29.90,6,1,0,0.13
2013-7-22,79,70,63,74,68,62,99,93,82,29.94,29.77,4,0,0,0.07
2013-7-23,86,72,61,76,67,60,99,85,63,29.80,29.65,6,1,0,0.61
2013-7-24,72,65,52,62,56,50,95,74,61,30.04,29.81,7,2,0,0.00
2013-7-25,79,63,50,60,53,50,99,75,44,30.11,30.04,7,1,0,0.00
2013-7-26,82,65,50,63,57,19,99,76,49,30.11,29.97,4,1,0,0.00
2013-7-27,72,66,61,68,63,58,98,91,79,29.97,29.79,4,1,0,0.24
2013-7-28,68,59,52,61,56,52,99,90,62,30.01,29.85,4,0,0,0.17
2013-7-29,72,61,52,62,56,52,99,86,61,30.19,30.02,5,1,0,0.00
2013-7-30,81,66,54,65,59,53,99,82,52,30.24,30.15,4,0,0,0.00
2013-7-31,81,69,59,69,64,58,99,83,62,30.16,29.92,4,1,0,0.20
2013-8-1,81,69,61,69,64,58,99,83,55,29.92,29.85,6,1,0,0.07
2013-8-2,75,66,55,66,61,55,99,86,61,29.99,29.89,4,1,0,0.83
2013-8-3,81,70,57,67,62,55,99,78,45,30.01,29.91,4,1,0,0.00
2013-8-4,72,64,55,60,58,54,99,83,58,30.14,30.00,5,1,0,1.33
2013-8-5,77,64,54,62,57,52,99,81,52,30.14,30.01,3,0,0,0.25
2013-8-6,81,68,57,67,62,57,99,82,57,30.02,29.94,4,0,0,0.71
2013-8-7,79,69,61,74,67,59,99,92,77,29.98,29.87,3,0,0,0.75
2013-8-8,86,74,68,76,70,-32,99,90,71,29.97,29.92,3,1,0,0.08
2013-8-9,81,70,59,68,62,52,99,79,48,30.02,29.92,5,1,0,0.05
2013-8-10,81,67,57,68,60,57,99,80,59,30.12,30.02,3,1,0,0.00
2013-8-11,82,70,59,65,61,56,98,75,53,30.14,30.04,5,1,0,0.36
2013-8-12,82,70,59,71,65,59,99,84,61,30.08,29.84,5,0,0,0.00
2013-8-13,72,66,52,68,60,48,99,82,58,30.00,29.80,6,2,0,0.36
2013-8-14,70,59,52,57,52,47,96,77,55,30.16,30.00,7,1,0,0.00
2013-8-15,73,59,46,59,52,46,99,79,48,30.20,30.12,4,1,0,0.34
2013-8-16,77,62,50,60,55,50,99,79,47,30.20,30.14,3,0,0,0.34
2013-8-17,81,66,50,64,57,50,99,77,47,30.25,30.18,4,1,0,0.00
2013-8-18,79,71,63,67,65,62,98,81,63,30.16,30.11,3,0,0,0.34
2013-8-19,81,68,59,68,62,59,99,82,50,30.15,30.07,5,1,0,0.00
2013-8-20,86,70,59,68,62,58,99,81,47,30.18,30.10,4,0,0,0.00
2013-8-21,90,72,59,71,64,59,99,80,45,30.19,30.05,4,0,0,0.00
2013-8-22,84,73,64,74,69,64,99,87,67,30.09,29.99,6,1,0,2.03
2013-8-23,84,72,54,70,62,51,99,76,43,30.20,30.02,7,1,0,0.00
2013-8-24,82,62,52,64,55,51,99,81,44,30.32,30.20,5,1,0,0.00
2013-8-25,86,72,55,67,61,55,99,73,48,30.34,30.21,6,1,0,0.00
2013-8-26,88,75,64,70,65,59,88,72,56,30.23,30.01,6,1,0,0.00
2013-8-27,81,75,70,76,72,68,99,91,78,30.05,29.90,5,1,0,1.43
2013-8-28,79,73,68,76,72,67,99,95,85,29.98,29.82,6,1,0,1.36
2013-8-29,88,75,66,76,70,66,99,86,58,30.07,29.97,5,1,0,0.00
2013-8-30,88,74,63,73,68,62,99,83,59,30.03,29.81,6,1,0,0.00
2013-8-31,86,75,68,74,70,67,99,87,64,29.84,29.72,5,1,0,0.01
2013-9-1,82,74,68,74,71,68,99,91,72,29.83,29.75,3,0,0,0.00
2013-9-2,79,72,63,73,67,60,99,87,68,29.86,29.75,4,1,0,0.00
2013-9-3,68,62,54,59,56,53,99,82,71,30.04,29.88,4,1,0,0.00
2013-9-4,79,64,52,64,58,52,99,81,53,30.11,30.03,7,1,0,0.83
2013-9-5,72,64,48,61,56,47,96,77,44,30.25,30.05,6,1,0,0.00
2013-9-6,77,58,43,57,49,41,99,76,31,30.29,30.12,4,0,0,0.00
2013-9-7,82,65,50,72,60,50,99,85,56,30.12,29.92,5,0,0,0.83
2013-9-8,77,67,54,68,63,52,99,87,67,30.07,29.91,6,1,0,0.00
2013-9-9,82,66,50,73,63,50,99,90,68,30.07,29.97,4,0,0,0.00
2013-9-10,97,82,72,78,73,68,95,75,47,30.09,29.98,7,2,0,0.15
2013-9-11,91,80,72,76,72,69,97,79,51,30.12,29.97,5,1,0,0.00
2013-9-12,75,68,59,71,66,59,99,92,65,29.98,29.82,5,1,0,0.65
2013-9-13,61,56,14,59,52,-69,99,86,69,30.08,29.88,6,2,0,0.19
2013-9-14,68,54,45,52,47,43,99,78,55,30.17,30.07,4,1,0,0.00
2013-9-15,70,57,45,58,52,44,99,86,59,30.16,30.04,3,0,0,0.06
2013-9-16,68,59,46,60,55,46,99,88,66,30.33,30.10,6,1,0,0.02
2013-9-17,72,55,41,53,47,41,99,79,38,30.40,30.24,4,1,0,0.00
2013-9-18,77,59,45,63,54,44,99,86,58,30.25,30.06,4,0,0,0.00
2013-9-19,81,67,55,71,64,55,99,90,69,30.10,29.97,4,1,0,0.00
2013-9-20,84,72,63,74,68,62,99,89,69,30.00,29.77,5,2,0,0.55
2013-9-21,70,64,55,68,62,55,99,94,72,29.81,29.66,7,1,0,1.17
2013-9-22,59,55,52,56,49,45,94,80,67,30.04,29.81,5,1,0,0.00
2013-9-23,63,53,43,51,48,42,99,83,57,30.16,30.04,3,0,0,0.94
2013-9-24,72,51,37,56,46,37,99,85,48,30.15,29.97,5,1,0,0.00
2013-9-25,77,56,43,60,50,42,99,83,40,30.00,29.90,3,0,0,0.00
2013-9-26,75,56,43,59,49,42,99,80,35,30.13,29.96,7,1,0,0.00
2013-9-27,79,58,45,59,52,44,99,83,49,30.22,30.12,8,1,0,0.29
2013-9-28,81,61,48,61,55,48,99,83,49,30.23,30.09,5,1,0,0.00
2013-9-29,75,62,52,65,58,52,99,89,67,30.09,29.97,3,1,0,0.00
2013-9-30,72,62,55,64,61,55,99,95,76,30.02,29.95,3,0,0,1.53
2013-10-1,81,64,54,66,60,53,99,87,59,30.07,29.97,6,1,0,0.00
2013-10-2,81,68,59,69,63,59,99,87,68,30.09,30.01,5,1,0,0.00
2013-10-3,81,68,61,73,65,60,99,91,70,30.08,29.98,3,0,0,0.05
2013-10-4,81,70,64,71,67,64,99,90,69,30.06,30.01,6,1,0,0.01
2013-10-5,81,68,63,72,67,62,99,96,73,30.07,29.94,3,0,0,0.38
2013-10-6,79,69,55,71,66,55,99,92,69,29.93,29.67,6,1,0,0.82
2013-10-7,61,53,45,55,48,44,99,84,60,30.12,29.73,7,2,0,0.85
2013-10-8,72,54,43,52,47,42,99,81,40,30.30,30.13,3,0,0,0.32
2013-10-9,72,54,41,52,46,41,99,79,42,30.32,30.21,4,1,0,0.32
2013-10-10,68,51,37,52,45,37,99,82,45,30.23,30.10,4,0,0,0.32
2013-10-11,77,55,41,58,49,41,99,83,42,30.14,30.05,5,1,0,0.00
2013-10-12,79,60,48,66,56,19,99,86,64,30.12,30.06,4,0,0,0.32
2013-10-13,70,62,54,63,59,52,99,90,72,30.30,30.11,5,1,0,0.32
2013-10-14,64,53,43,55,48,42,99,85,61,30.36,30.26,8,1,0,0.32
2013-10-15,64,54,41,60,53,41,99,95,85,30.26,29.92,4,1,0,0.05
2013-10-16,70,60,45,66,58,44,99,94,77,29.92,29.79,6,1,0,0.76
2013-10-17,59,48,39,52,46,39,99,93,67,29.92,29.76,6,1,0,0.22
2013-10-18,64,52,41,50,46,40,99,81,55,29.97,29.87,7,2,0,0.00
2013-10-19,50,44,37,46,43,37,99,96,80,29.91,29.74,5,1,0,0.34
2013-10-20,61,48,36,46,40,35,99,78,50,29.95,29.88,10,2,0,0.81
2013-10-21,66,53,45,50,44,39,99,72,47,29.96,29.81,7,2,0,0.60
2013-10-22,52,43,34,49,35,31,97,74,53,29.96,29.84,8,2,0,0.01
2013-10-23,46,38,34,42,35,32,99,87,63,29.91,29.76,9,2,0,0.21
2013-10-24,45,37,32,36,33,30,99,86,62,30.13,29.90,9,2,0,0.12
2013-10-25,46,38,32,38,33,30,99,85,52,30.32,30.13,8,2,0,0.02
2013-10-26,46,40,32,39,32,27,99,73,58,30.18,29.83,7,3,0,1.20
2013-10-27,52,40,32,39,35,32,99,85,56,30.08,29.96,6,1,0,0.01
2013-10-28,55,41,30,45,37,30,99,87,63,30.33,30.06,4,0,0,0.00
2013-10-29,59,42,30,44,36,30,99,85,48,30.39,30.24,4,0,0,0.00
2013-10-30,68,50,36,53,45,19,99,83,59,30.24,30.01,4,1,0,0.00
2013-10-31,66,61,55,60,58,52,99,93,75,30.01,29.28,10,4,0,0.60
2013-11-1,61,52,43,59,48,42,99,86,72,29.68,29.21,11,3,0,0.31
2013-11-2,50,45,41,46,43,39,99,93,81,30.01,29.65,8,2,0,0.21
2013-11-3,48,39,28,40,34,27,99,86,62,30.45,30.01,8,1,0,0.18
2013-11-4,50,38,28,32,28,26,94,70,42,30.49,30.36,6,2,0,0.00
2013-11-5,59,45,37,46,38,30,81,76,63,30.38,30.25,3,0,0,0.00
2013-11-6,64,50,43,56,43,36,97,77,56,30.25,29.89,11,3,0,0.26
2013-11-7,46,42,39,46,36,29,99,80,60,30.10,29.94,11,4,0,0.30
2013-11-8,43,36,28,34,30,28,99,81,60,30.28,30.08,9,2,0,0.01
2013-11-9,59,46,28,42,35,28,99,70,45,30.23,29.86,9,3,0,0.00
2013-11-10,50,43,34,41,33,29,85,68,56,30.27,29.92,10,4,0,0.00
2013-11-11,46,37,30,40,33,28,99,87,62,30.25,30.01,9,2,0,0.26
2013-11-12,36,31,28,30,26,21,99,83,69,30.47,30.20,6,2,0,0.04
2013-11-13,41,32,25,26,22,20,86,68,52,30.52,30.25,7,2,0,0.19
2013-11-14,50,38,25,26,23,21,88,57,34,30.25,30.06,6,2,0,0.14
2013-11-15,52,43,32,33,26,22,77,54,38,30.12,30.05,5,1,0,0.36
2013-11-16,61,55,43,51,48,33,86,79,67,30.14,29.90,6,3,0,0.19
2013-11-17,63,58,52,58,54,42,99,87,67,29.89,29.39,11,5,0,0.26
2013-11-18,52,43,36,43,35,28,81,74,68,30.09,29.57,19,6,0,0.00
2013-11-19,41,34,25,29,26,23,98,75,62,30.40,30.09,9,2,0,0.00
2013-11-20,46,33,19,29,20,-58,99,67,31,30.42,30.27,5,1,0,0.00
2013-11-21,45,41,37,42,34,20,99,77,49,30.35,30.18,4,2,0,0.08
2013-11-22,50,43,34,50,42,28,99,96,80,30.31,30.11,13,2,0,0.26
2013-11-23,34,29,21,29,22,8,91,75,52,30.40,30.21,12,4,0,0.00
2013-11-24,27,22,19,15,12,8,82,64,56,30.53,30.40,11,4,0,0.00
2013-11-25,34,27,19,24,17,13,83,66,48,30.44,30.13,12,2,0,1.11
2013-11-26,36,33,32,32,29,24,99,85,68,30.14,29.82,6,1,0,0.00
2013-11-27,32,29,25,32,23,16,99,80,64,30.11,29.77,11,4,0,0.00
2013-11-28,36,26,18,24,18,13,84,73,52,30.38,30.12,5,1,0,0.00
2013-11-29,37,25,14,26,20,13,96,83,56,30.62,30.39,5,0,0,0.01
2013-11-30,41,31,21,29,25,19,94,78,59,30.57,30.13,4,1,0,0.09
2013-12-1,43,36,32,34,30,27,94,80,64,30.13,29.94,4,0,0,0.08
2013-12-2,41,35,30,35,32,29,99,89,71,29.94,29.84,4,0,0,0.00
2013-12-3,52,40,30,43,36,30,99,88,67,29.88,29.82,5,0,0,0.00
2013-12-4,59,50,39,51,45,38,98,84,74,29.92,29.73,5,2,0,1.90
2013-12-5,63,50,32,56,44,29,98,81,68,30.09,29.71,11,4,0,0.00
2013-12-6,36,31,28,32,29,26,99,92,78,30.31,30.07,6,1,0,0.65
2013-12-7,28,24,18,27,19,14,95,82,66,30.56,30.31,7,2,0,0.95
2013-12-8,30,25,16,29,20,14,95,81,61,30.56,29.98,6,1,0,0.95
2013-12-9,34,31,27,33,27,20,99,86,72,30.12,29.88,9,3,0,0.00
2013-12-10,30,24,19,20,15,9,80,69,43,30.22,29.95,8,3,0,0.00
2013-12-11,28,22,18,23,17,11,94,81,67,30.38,30.21,8,3,0,1.90
2013-12-12,23,16,9,12,6,3,89,66,44,30.42,30.20,10,3,0,0.00
2013-12-13,34,25,18,20,15,6,83,67,52,30.23,30.15,6,2,0,0.95
2013-12-14,32,30,25,32,28,20,99,93,77,30.21,29.63,3,0,0,0.95
2013-12-15,32,23,12,32,21,10,99,92,84,30.01,29.64,0,0,0,0.00
2013-12-16,28,17,9,22,13,7,94,84,62,30.14,29.96,0,0,0,0.95
2013-12-17,34,27,21,28,24,19,99,88,69,30.01,29.88,0,0,0,0.95
2013-12-18,34,27,23,25,22,17,93,81,66,30.13,29.95,0,0,0,0.95
2013-12-19,50,38,28,35,29,21,83,72,56,30.00,29.92,6,2,0,1.10
2013-12-20,54,46,41,53,43,34,99,91,70,29.93,29.77,6,3,0,0.25
2013-12-21,55,53,41,55,52,41,99,98,96,29.79,29.73,10,3,0,0.86
2013-12-22,63,51,36,57,47,35,99,87,66,29.96,29.47,11,4,0,2.83
2013-12-23,37,33,28,36,28,21,95,82,70,30.29,29.96,9,3,0,0.04
2013-12-24,28,20,16,24,15,11,90,79,69,30.51,30.25,11,3,0,0.00
2013-12-25,30,22,12,23,16,10,93,78,60,30.46,30.13,7,2,0,0.00
2013-12-26,32,28,19,28,23,16,91,80,64,30.30,30.05,10,3,0,0.00
2013-12-27,41,34,25,32,27,19,87,75,67,30.31,30.16,8,2,0,0.04
2013-12-28,54,42,32,38,32,27,84,68,51,30.16,29.96,8,2,0,0.00
2013-12-29,43,38,28,39,33,27,96,82,65,29.96,29.67,8,1,0,0.17
2013-12-30,28,23,19,27,20,15,96,87,69,30.22,29.93,5,2,0,0.00
2013-12-31,23,20,18,20,15,10,91,81,66,30.29,30.02,12,3,0,0.47
2014-1-1,30,23,19,24,20,17,93,85,74,30.30,30.09,2,0,0,0.00
2014-1-2,27,20,12,22,17,9,91,89,84,30.07,29.81,0,0,0,0.00